Location: Austin
(30.3000°N, 97.7500°W)
Time: 22:56:00
(UTC-05:00)

Cosmos 1697 Rocket - Pass Details

Date: 06 May 2026
Orbit: 832 x 842 km, 71.0° (Epoch: 13 May)

Event Time Altitude Azimuth Distance (km) Brightness Sun altitude
Rises 21:40:33 0° 356° (N) 3,385 6.4 -17.9°
Reaches altitude 10° 21:43:34 10° 12° (NNE) 2,446 5.4 -18.4°
Maximum altitude 21:47:50 22° 62° (ENE) 1,749 4.1 -19.2°
Enters shadow 21:48:42 21° 75° (ENE) 1,782 4.0 -19.4°
